Terminal Aerodrome Forecast
Issued by NWS Shreveport, LA

Home | Current Version | Previous Version | Text Only | Print | Product List | Glossary On
Versions: 1 2 3 4 5 6 7 8 9 10 11 12
000
FTUS44 KSHV 010500
TAFTXK
TAF
KTXK 010523Z 0106/0206 04006KT P6SM SKC
     FM011400 05004KT P6SM SKC
     FM020000 12004KT P6SM SKC=

USA.gov is the U.S. government's official web portal to all federal, state and local government web resources and services.